SL-14 R/B

Last updated on Thu Oct 30 2025 00:02:15 GMT+0000 (Coordinated Universal Time)

1 21423U 91042B 25302.48147610 .00000536 00000+0 65034-4 0 9996 2 21423 82.4939 343.2302 0015913 316.1613 43.8337 14.81679884833644
UTC large
Height (km)
Speed (km/s)
/
Latitude / Longitude
Inclination (degrees)
Orbital Period (minutes)
Azimuth
Elevation
Range (km)
Doppler Factor

Next 0 passes for location: London (51.5072 / 0.1276)

Sorry there are no passes over London.